Regional Weather Roundup
Issued by NWS Cleveland, OH

Home | Current Version | Previous Version | Text Only | Print | Product List | Glossary Off
Versions: 1 2 3 4 5 6 7 8 9 10 11 12 13 14 15 16 17 18 19 20 21 22 23 24 25 26 27 28 29 30 31 32 33 34 35 36 37 38 39 40 41 42 43 44 45 46 47 48 49 50

000
ASUS41 KCLE 281002
RWRCLE
OHIO REGIONAL WEATHER ROUNDUP
NATIONAL WEATHER SERVICE CLEVELAND, OH
600 AM EDT SAT MAY 28 2016

NOTE: "FAIR" INDICATES FEW OR NO CLOUDS BELOW 12,000 FEET WITH NO
SIGNIFICANT WEATHER AND/OR OBSTRUCTIONS TO VISIBILITY.

OHZ001>008-015>018-024>027-034-035-043-044-281100-
   NORTHWEST OHIO

CITY           SKY/WX    TMP DP  RH WIND       PRES   REMARKS
DEFIANCE       CLEAR     71  62  73 S5        29.99R
FINDLAY        CLEAR     69  60  73 SE7       30.01R
TOLEDO EXPRESS CLEAR     67  61  81 CALM      30.00R
TOLEDO EXEC    CLEAR     68  60  75 S3        30.01R
LIMA           CLEAR     68  62  81 S7        30.02R
$$

OHZ009>014-019>023-028>033-038-089-281100-
   NORTHEAST OHIO

CITY           SKY/WX    TMP DP  RH WIND       PRES   REMARKS
CLE-HOPKINS    MOCLDY    70  63  78 S7        30.06R
CLE-LAKEFRONT  PTCLDY    73  64  73 S9        30.03R
CUY CO. ARPT   NOT AVBL
LORAIN-ELYRIA  PTCLDY    68  62  81 S5        30.05R
ASHTABULA      PTCLDY    67  64  90 CALM      30.08R
AKRON-CANTON   MOCLDY    68  63  84 S3        30.09R HAZE
WOOSTER        PTCLDY    64  62  93 SE3       30.08R
MANSFIELD      CLOUDY    69  64  84 S5        30.07R
YOUNGSTOWN     PTCLDY    64  61  90 S6        30.09R
$$

OHZ042-051>053-060>062-070>072-077>081-281100-
  SOUTHWEST OHIO

CITY           SKY/WX    TMP DP  RH WIND       PRES   REMARKS
CINC-COVINGTON NOT AVBL
CINC-LUNKEN    CLEAR     63  63 100 CALM      30.05R FOG
HAMILTON       PTCLDY    68  65  90 CALM      30.04R
DAYTON         PTCLDY    70  64  81 S9        30.04R
WRIGHT-PAT AFB NOT AVBL
DAYTON GENERAL CLEAR     68  63  84 S8        30.04R
WILMINGTON     MOCLDY    68  63  84 S6        30.06R
$$

OHZ036-037-039>041-045>050-054>059-063>069-073>076-082>088-281100-
  CENTRAL AND SOUTHEAST OHIO

CITY           SKY/WX    TMP DP  RH WIND       PRES   REMARKS
COLUMBUS       MOCLDY    67  64  90 CALM      30.05R
OSU AIRPORT    PTCLDY    71  65  81 SE5       30.05R
BOLTON FIELD   NOT AVBL
RICKENBACK AFB NOT AVBL
NEWARK         MOCLDY    65  62  90 CALM      30.06R
MARION         PTCLDY    67  63  87 S8        30.05R
LANCASTER      MOCLDY    67  64  90 S5        30.06R
ZANESVILLE     MOCLDY    69  63  81 SE5       30.08R
NEW PHILLY     MOCLDY    66  62  87 E3        30.09R FOG
$$




USA.gov is the U.S. government's official web portal to all federal, state and local government web resources and services.